Location: Dompnac
(44.5644°N, 4.1026°E)
Time: 18:40:26
(UTC+00:00)

NOSS 2-2 (D) - Visible Passes

Search period start: 26 January 2021 00:00
Search period end: 05 February 2021 00:00
Orbit: 464 x 1744 km, 63.3° (Epoch: 16 January)

Date Brightness Start Highest point End Pass type
(mag) Time Alt. Az. Time Alt. Az. Time Alt. Az.
26 Jan 5.6 18:08:00 10° NNW 18:11:46 20° NE 18:12:50 19° NE visible
26 Jan 5.6 19:57:31 10° NW 20:00:15 33° NNW 20:00:15 33° NNW visible
27 Jan 5.9 17:23:11 10° N 17:25:54 14° NNE 17:29:01 10° ENE visible
27 Jan 4.7 19:12:18 10° NNW 19:16:49 48° NNE 19:16:49 48° NNE visible
27 Jan 6.8 21:02:54 10° NW 21:04:14 17° WNW 21:04:14 17° WNW visible
28 Jan 5.0 18:27:11 10° NNW 18:32:01 34° NE 18:33:31 31° ENE visible
28 Jan 5.6 20:17:16 10° NW 20:20:57 41° WNW 20:20:57 41° WNW visible
29 Jan 5.4 17:42:09 10° NNW 17:46:21 24° NE 17:50:24 14° E visible
29 Jan 4.5 19:31:51 10° NW 19:37:30 86° SW 19:37:52 80° S visible
29 Jan 7.0 21:23:48 10° WNW 21:25:20 15° W 21:25:20 15° W visible
30 Jan 4.5 18:46:34 10° NNW 18:52:01 64° NE 18:55:05 35° ESE visible
30 Jan 6.2 20:37:31 10° WNW 20:42:35 29° WSW 20:42:35 29° WSW visible
31 Jan 4.8 18:01:23 10° NNW 18:06:29 43° NE 18:12:43 12° ESE visible
31 Jan 5.5 19:51:44 10° NW 19:57:21 45° WSW 20:00:15 31° S visible
01 Feb 5.2 17:16:18 10° NNW 17:20:53 29° NE 17:26:49 10° E visible
01 Feb 4.8 19:06:12 10° NW 19:11:54 69° SW 19:18:42 14° SSE visible
01 Feb 7.2 20:59:09 10° W 21:02:23 14° WSW 21:06:03 10° SW visible
02 Feb 4.5 18:20:52 10° NW 18:26:26 80° NE 18:34:15 10° SE visible
02 Feb 6.7 20:12:17 10° WNW 20:17:06 23° WSW 20:23:04 10° SSW visible
03 Feb 4.6 17:35:38 10° NNW 17:40:56 53° NE 17:48:15 10° SE visible
03 Feb 6.1 19:26:16 10° NW 19:31:43 36° WSW 19:38:55 10° S visible
04 Feb 5.3 18:40:37 10° NW 18:46:18 55° WSW 18:54:05 10° SSE visible
